Lahr, Germany

10:58 PM CET on February 25, 2017 (GMT +0100)
Lahr

Weather History for EDTL - November, 2012

Change the Weather History Date:

Monday, November 12, 2012

  Actual Average (LFST) Record (LFST)
Temperature  
Mean Temperature 42 °F -  
Max Temperature 50 °F 46 °F 63 °F (2015)
Min Temperature 34 °F 36 °F 26 °F (2001)
Degree Days  
Heating Degree Days 23    
Moisture  
Dew Point 41 °F    
Average Humidity 84    
Maximum Humidity 100    
Minimum Humidity 64    
Precipitation  
Precipitation 0.00 in - - ()
Sea Level Pressure  
Sea Level Pressure 30.32 in    
Wind  
Wind Speed 4 mph ()    
Max Wind Speed 8 mph    
Max Gust Speed -    
Visibility 7.9 miles    
Events Fog    
Averages and records for this station are not official NWS values.
T = Trace of Precipitation, MM = Missing Value Source: Averaged Metar Reports

Daily Weather History Graph

Daily Weather History Graph

Search for Another Location

Airport or City:

Trip Planner

Search our weather history database for the weather conditions in past years. The results will help you decide how hot, cold, wet, or windy it might be!

Date:

Astronomy

Nov. 12, 2012 Rise Set
Actual Time 7:31 AM CET 4:53 PM CET
Civil Twilight 6:58 AM CET 5:27 PM CET
Nautical Twilight 6:20 AM CET 6:04 PM CET
Astronomical Twilight 5:43 AM CET 6:41 PM CET
Moon 5:32 AM CET (11/12) 3:50 PM CET (11/12)
Length of Visible Light 10h 29m
Length of Day
9h 21m
Waning Crescent, 3% of the Moon is Illuminated
Nov 12
Waning Crescent
Nov 13
New
Nov 20
First Quarter
Nov 28
Full
Dec 6
Last Quarter

Hourly Weather History & Observations

Time (CET) Temp. Windchill Dew Point Humidity Pressure Visibility Wind Dir Wind Speed Gust Speed Precip Events Conditions
1:00 AM 46 °F - 43 °F 87% 30.20 in 13 mi NNE 4.5 mph - -   Clear
2:00 AM 46 °F - 44 °F 88% 30.22 in 10 mi NE 4.5 mph - -   Overcast
3:00 AM 46 °F - 44 °F 89% 30.23 in 7 mi East 2.2 mph - -   Overcast
4:00 AM 45 °F - 43 °F 91% 30.23 in 7 mi NNE 4.5 mph - -   Overcast
5:00 AM 45 °F - 43 °F 92% 30.25 in 6 mi ENE 2.2 mph - -   Overcast
6:00 AM 45 °F - 44 °F 94% 30.26 in 7 mi North 4.5 mph - -   Partly Cloudy
7:00 AM 45 °F - 44 °F 93% 30.26 in 7 mi ENE 4.5 mph - -   Overcast
7:50 AM 44.6 °F 42.2 °F 44.6 °F 100% 30.24 in 6.2 mi North 4.6 mph - N/A   Mostly Cloudy
8:00 AM 45 °F - 43 °F 90% 30.29 in 12 mi North 4.5 mph - -   Overcast
8:20 AM 44.6 °F 41.4 °F 42.8 °F 93% 30.27 in 6.2 mi North 5.8 mph - N/A   Mostly Cloudy
8:50 AM 44.6 °F 42.2 °F 44.6 °F 100% 30.27 in 6.2 mi NNE 4.6 mph - N/A   Mostly Cloudy
9:00 AM 45 °F - 43 °F 90% 30.32 in 12 mi NE 4.5 mph - -   Overcast
9:20 AM 44.6 °F 42.2 °F 42.8 °F 93% 30.30 in 6.2 mi NE 4.6 mph - N/A   Mostly Cloudy
9:50 AM 46.4 °F 43.5 °F 42.8 °F 87% 30.30 in 6.2 mi NNE 5.8 mph - N/A   Mostly Cloudy
10:00 AM 46 °F - 43 °F 84% 30.32 in 12 mi NNE 6.7 mph - -   Overcast
10:20 AM 46.4 °F 42.9 °F 42.8 °F 87% 30.30 in 6.2 mi North 6.9 mph - N/A   Mostly Cloudy
10:50 AM 46.4 °F 44.3 °F 42.8 °F 87% 30.30 in 6.2 mi NE 4.6 mph - N/A   Mostly Cloudy
11:00 AM 47 °F - 43 °F 79% 30.35 in 12 mi NE 4.5 mph - -   Mostly Cloudy
11:20 AM 46.4 °F 44.3 °F 42.8 °F 87% 30.33 in 6.2 mi NNE 4.6 mph - N/A   Mostly Cloudy
11:50 AM 46.4 °F 44.3 °F 42.8 °F 87% 30.30 in 6.2 mi NE 4.6 mph - N/A   Mostly Cloudy
12:00 PM 47 °F - 43 °F 80% 30.34 in 12 mi ENE 6.7 mph - -   Mostly Cloudy
12:20 PM 48.2 °F - 41.0 °F 76% 30.30 in 6.2 mi North 4.6 mph - N/A   Scattered Clouds
12:50 PM 48.2 °F - 41.0 °F 76% 30.30 in 6.2 mi NE 3.5 mph - N/A   Scattered Clouds
1:00 PM 50 °F - 42 °F 66% 30.34 in 12 mi NE 2.2 mph - -   Partly Cloudy
1:20 PM 48.2 °F - 39.2 °F 71% 30.30 in 6.2 mi North 5.8 mph - N/A   Scattered Clouds
1:50 PM 48.2 °F - 41.0 °F 76% 30.30 in 6.2 mi East 2.3 mph - N/A   Scattered Clouds
2:00 PM 49 °F - 41 °F 66% 30.34 in 16 mi ENE 4.5 mph - -   Mostly Cloudy
2:20 PM 50.0 °F - 41.0 °F 71% 30.30 in 6.2 mi NE 3.5 mph - N/A   Scattered Clouds
2:50 PM 48.2 °F - 41.0 °F 76% 30.30 in 6.2 mi North 8.1 mph - N/A   Scattered Clouds
3:00 PM 49 °F - 40 °F 64% 30.34 in 16 mi NNE 6.7 mph - -   Scattered Clouds
3:20 PM 48.2 °F - 39.2 °F 71% 30.33 in 6.2 mi North 5.8 mph - N/A   Partly Cloudy
3:50 PM 48.2 °F - 41.0 °F 76% 30.33 in 6.2 mi North 5.8 mph - N/A   Partly Cloudy
4:00 PM 48 °F - 40 °F 66% 30.36 in 16 mi NNE 6.7 mph - -   Scattered Clouds
4:20 PM 44.6 °F 40.2 °F 39.2 °F 81% 30.33 in 6.2 mi North 8.1 mph - N/A   Partly Cloudy
4:50 PM 42.8 °F 38.6 °F 37.4 °F 81% 30.36 in 6.2 mi NNE 6.9 mph - N/A   Partly Cloudy
5:00 PM 43 °F - 38 °F 76% 30.39 in 19 mi NNE 6.7 mph - -   Scattered Clouds
5:20 PM 41.0 °F 39.0 °F 35.6 °F 81% 30.36 in 6.2 mi NNE 3.5 mph - N/A   Partly Cloudy
5:50 PM 41.0 °F 38.0 °F 37.4 °F 87% 30.36 in 6.2 mi North 4.6 mph - N/A   Partly Cloudy
6:20 PM 39.2 °F - 35.6 °F 87% 30.36 in 6.2 mi Variable 1.2 mph - N/A   Partly Cloudy
6:50 PM 39.2 °F 37.0 °F 37.4 °F 93% 30.39 in 6.2 mi ENE 3.5 mph - N/A   Partly Cloudy
7:00 PM 38 °F - 36 °F 90% 30.42 in 7 mi ENE 4.5 mph - -  
7:20 PM 39.2 °F - 37.4 °F 93% 30.39 in 6.2 mi Variable 1.2 mph - N/A   Partly Cloudy
8:00 PM 37 °F - 35 °F 91% 30.44 in 6 mi NNE 2.2 mph - -  
9:00 PM 36 °F - 35 °F 93% 30.44 in 4 mi Calm Calm - -   Mist
10:00 PM 34 °F - 33 °F 95% 30.46 in 2 mi SSW 2.2 mph - -   Mist
11:00 PM 34 °F - 33 °F 97% 30.46 in 0 mi Calm Calm - - Fog Fog